| time (UTC) | temp C | wind direction | speed KPH | gust KPH | rain 1hr cm | rain 24hr cm | rain mn cm | humidity % | barometer mb |
| 20260503200159 | 16 | 313 | 14.5 | 16.1 | 0.00 | 0.00 | 0.00 | 39 | 998.9 |
| 20260503195656 | 16 | 259 | 14.5 | 16.1 | 0.00 | 0.00 | 0.00 | 39 | 998.9 |
| 20260503195153 | 16 | 220 | 9.7 | 12.9 | 0.00 | 0.00 | 0.00 | 40 | 999.1 |
| 20260503194650 | 16 | 175 | 14.5 | 17.7 | 0.00 | 0.00 | 0.00 | 40 | 999.1 |
| 20260503194145 | 16 | 220 | 14.5 | 20.9 | 0.00 | 0.00 | 0.00 | 40 | 999.5 |
| 20260503193642 | 17 | 172 | 3.2 | 8.0 | 0.00 | 0.00 | 0.00 | 43 | 999.5 |
| 20260503193138 | 16 | 159 | 4.8 | 4.8 | 0.00 | 0.00 | 0.00 | 42 | 999.6 |
| 20260503192634 | 16 | 215 | 9.7 | 12.9 | 0.00 | 0.00 | 0.00 | 42 | 999.8 |
| 20260503192129 | 16 | 199 | 6.4 | 8.0 | 0.00 | 0.00 | 0.00 | 43 | 1000.0 |
| 20260503191627 | 16 | 222 | 11.3 | 12.9 | 0.00 | 0.00 | 0.00 | 40 | 1000.0 |
| 20260503191124 | 16 | 247 | 14.5 | 17.7 | 0.00 | 0.00 | 0.00 | 41 | 1000.2 |
| 20260503190621 | 16 | 230 | 4.8 | 4.8 | 0.00 | 0.00 | 0.00 | 44 | 1000.1 |
| 20260503190117 | 16 | 218 | 16.1 | 20.9 | 0.00 | 0.00 | 0.00 | 42 | 1000.3 |
| 20260503185614 | 15 | 217 | 8.0 | 14.5 | 0.00 | 0.00 | 0.00 | 42 | 1000.0 |
| 20260503185115 | 16 | 230 | 8.0 | 11.3 | 0.00 | 0.00 | 0.00 | 41 | 1000.1 |
| 20260503184610 | 16 | 213 | 4.8 | 9.7 | 0.00 | 0.00 | 0.00 | 42 | 1000.5 |
| 20260503184107 | 15 | 204 | 6.4 | 8.0 | 0.00 | 0.00 | 0.00 | 44 | 1000.5 |
| 20260503183603 | 16 | 189 | 6.4 | 9.7 | 0.00 | 0.00 | 0.00 | 40 | 1000.4 |
| 20260503183100 | 16 | 211 | 8.0 | 9.7 | 0.00 | 0.00 | 0.00 | 41 | 1000.3 |
| 20260503182559 | 16 | 238 | 8.0 | 11.3 | 0.00 | 0.00 | 0.00 | 41 | 1000.5 |
| 20260503182056 | 16 | 253 | 12.9 | 16.1 | 0.00 | 0.00 | 0.00 | 41 | 1000.8 |
| 20260503181553 | 15 | 247 | 14.5 | 20.9 | 0.00 | 0.00 | 0.00 | 39 | 1000.6 |
| 20260503181050 | 15 | 216 | 16.1 | 22.5 | 0.00 | 0.00 | 0.00 | 41 | 1000.7 |
| 20260503180547 | 15 | 195 | 4.8 | 8.0 | 0.00 | 0.00 | 0.00 | 42 | 1000.7 |
| 20260503180044 | 15 | 163 | 12.9 | 16.1 | 0.00 | 0.00 | 0.00 | 43 | 1000.9 |
| 20260503175541 | 15 | 218 | 11.3 | 16.1 | 0.00 | 0.00 | 0.00 | 41 | 1000.8 |
| 20260503175039 | 15 | 228 | 9.7 | 11.3 | 0.00 | 0.00 | 0.00 | 41 | 1001.0 |
| 20260503174536 | 15 | 236 | 6.4 | 9.7 | 0.00 | 0.00 | 0.00 | 42 | 1001.0 |
| 20260503174032 | 15 | 245 | 14.5 | 20.9 | 0.00 | 0.00 | 0.00 | 41 | 1001.1 |
| 20260503173527 | 15 | 201 | 8.0 | 12.9 | 0.00 | 0.00 | 0.00 | 42 | 1001.2 |
| 20260503173023 | 15 | 265 | 3.2 | 3.2 | 0.00 | 0.00 | 0.00 | 48 | 1001.3 |
| 20260503172521 | 15 | 192 | 4.8 | 9.7 | 0.00 | 0.00 | 0.00 | 42 | 1001.5 |
| 20260503172018 | 15 | 236 | 16.1 | 20.9 | 0.00 | 0.00 | 0.00 | 37 | 1001.6 |
| 20260503171514 | 15 | 269 | 6.4 | 9.7 | 0.00 | 0.00 | 0.00 | 42 | 1001.5 |
| 20260503171012 | 15 | 191 | 4.8 | 9.7 | 0.00 | 0.00 | 0.00 | 43 | 1001.6 |
| 20260503170508 | 15 | 203 | 4.8 | 8.0 | 0.00 | 0.00 | 0.00 | 47 | 1001.6 |
| 20260503150900 | 12 | 207 | 6.4 | 9.7 | 0.00 | 0.00 | 0.00 | 50 | 1003.0 |
| 20260503150357 | 12 | 193 | 4.8 | 8.0 | 0.00 | 0.00 | 0.00 | 53 | 1003.1 |
| 20260503131250 | 7 | 189 | 4.8 | 4.8 | 0.00 | 0.00 | 0.00 | 69 | 1003.2 |
| 20260503130748 | 7 | 217 | 8.0 | 11.3 | 0.00 | 0.00 | 0.00 | 69 | 1003.1 |
| 20260503130245 | 6 | 222 | 4.8 | 8.0 | 0.00 | 0.00 | 0.00 | 71 | 1003.0 |
| 20260503120211 | 3 | 208 | 4.8 | 4.8 | 0.00 | 0.00 | 0.00 | 84 | 1002.9 |
| 20260503110638 | 0 | 184 | 0.0 | 0.0 | 0.00 | 0.00 | 0.00 | 99 | 1002.7 |
| 20260503110136 | 0 | 197 | 0.0 | 0.0 | 0.00 | 0.00 | 0.00 | 99 | 1002.4 |
| 20260503081452 | -1 | 172 | 0.0 | 0.0 | 0.00 | 0.00 | 0.00 | 99 | 1001.7 |
| 20260503080949 | 0 | 172 | 0.0 | 0.0 | 0.00 | 0.00 | 0.00 | 99 | 1001.7 |
| 20260503080445 | 0 | 172 | 0.0 | 0.0 | 0.00 | 0.00 | 0.00 | 99 | 1001.9 |
| 20260503072921 | 0 | 172 | 0.0 | 0.0 | 0.00 | 0.00 | 0.00 | 99 | 1001.5 |
| 20260503072419 | 0 | 172 | 0.0 | 0.0 | 0.00 | 0.00 | 0.00 | 99 | 1001.6 |
| 20260503071916 | 0 | 172 | 0.0 | 0.0 | 0.00 | 0.00 | 0.00 | 99 | 1001.6 |
| 20260503071413 | -1 | 172 | 0.0 | 0.0 | 0.00 | 0.00 | 0.00 | 98 | 1001.6 |
| 20260503070909 | -1 | 172 | 0.0 | 0.0 | 0.00 | 0.00 | 0.00 | 98 | 1001.5 |
| 20260503070406 | 0 | 172 | 0.0 | 0.0 | 0.00 | 0.00 | 0.00 | 97 | 1001.7 |
| 20260503060332 | 0 | 171 | 0.0 | 0.0 | 0.00 | 0.00 | 0.00 | 96 | 1001.8 |
| 20260503054820 | 0 | 172 | 0.0 | 0.0 | 0.00 | 0.00 | 0.00 | 95 | 1001.8 |
| 20260503054316 | 0 | 178 | 0.0 | 0.0 | 0.00 | 0.00 | 0.00 | 95 | 1001.9 |
| 20260503053814 | 0 | 179 | 0.0 | 0.0 | 0.00 | 0.00 | 0.00 | 95 | 1002.0 |
| 20260503053312 | 0 | 179 | 0.0 | 0.0 | 0.00 | 0.00 | 0.00 | 94 | 1001.8 |
| 20260503052808 | 0 | 179 | 0.0 | 0.0 | 0.00 | 0.00 | 0.00 | 94 | 1001.9 |
| 20260503052306 | 0 | 179 | 0.0 | 0.0 | 0.00 | 0.00 | 0.00 | 92 | 1001.7 |
| 20260503051801 | 0 | 179 | 0.0 | 0.0 | 0.00 | 0.00 | 0.00 | 92 | 1002.0 |
| 20260503051258 | 0 | 179 | 0.0 | 0.0 | 0.00 | 0.00 | 0.00 | 91 | 1001.9 |
| 20260503050754 | 1 | 180 | 0.0 | 0.0 | 0.00 | 0.00 | 0.00 | 91 | 1001.9 |
| 20260503050250 | 1 | 180 | 0.0 | 0.0 | 0.00 | 0.00 | 0.00 | 91 | 1001.8 |
| 20260503045748 | 1 | 184 | 0.0 | 0.0 | 0.00 | 0.00 | 0.00 | 91 | 1001.9 |
| 20260503045246 | 1 | 186 | 0.0 | 0.0 | 0.00 | 0.00 | 0.00 | 92 | 1001.9 |
| 20260503044742 | 1 | 162 | 0.0 | 0.0 | 0.00 | 0.00 | 0.00 | 91 | 1002.0 |
| 20260503044239 | 1 | 162 | 0.0 | 0.0 | 0.00 | 0.00 | 0.00 | 91 | 1001.9 |
| 20260503043737 | 1 | 162 | 0.0 | 0.0 | 0.00 | 0.00 | 0.00 | 89 | 1001.9 |
| 20260503043234 | 1 | 162 | 0.0 | 0.0 | 0.00 | 0.00 | 0.00 | 89 | 1001.8 |
| 20260503042729 | 1 | 162 | 0.0 | 0.0 | 0.00 | 0.00 | 0.00 | 87 | 1001.9 |
| 20260503042226 | 1 | 162 | 0.0 | 0.0 | 0.00 | 0.00 | 0.00 | 87 | 1002.0 |
| 20260503041722 | 1 | 162 | 0.0 | 0.0 | 0.00 | 0.00 | 0.00 | 85 | 1002.0 |
| 20260503041220 | 2 | 162 | 0.0 | 0.0 | 0.00 | 0.00 | 0.00 | 85 | 1001.9 |
| 20260503040717 | 2 | 162 | 0.0 | 0.0 | 0.00 | 0.00 | 0.00 | 84 | 1002.1 |
| 20260503040215 | 2 | 162 | 0.0 | 0.0 | 0.00 | 0.00 | 0.00 | 83 | 1002.0 |
| 20260503035712 | 2 | 162 | 0.0 | 0.0 | 0.00 | 0.00 | 0.00 | 83 | 1002.1 |
| 20260503035209 | 2 | 162 | 0.0 | 0.0 | 0.00 | 0.00 | 0.00 | 82 | 1002.2 |
| 20260503034706 | 3 | 162 | 0.0 | 0.0 | 0.00 | 0.00 | 0.00 | 82 | 1002.0 |
| 20260503034203 | 3 | 162 | 0.0 | 0.0 | 0.00 | 0.00 | 0.00 | 81 | 1002.1 |
| 20260503033700 | 3 | 162 | 0.0 | 0.0 | 0.00 | 0.00 | 0.00 | 80 | 1002.2 |
| 20260503033158 | 3 | 162 | 0.0 | 0.0 | 0.00 | 0.00 | 0.00 | 79 | 1002.2 |
| 20260503032656 | 3 | 162 | 0.0 | 0.0 | 0.00 | 0.00 | 0.00 | 77 | 1002.1 |
| 20260503032154 | 3 | 162 | 0.0 | 0.0 | 0.00 | 0.00 | 0.00 | 76 | 1002.1 |
| 20260503031651 | 4 | 162 | 0.0 | 0.0 | 0.00 | 0.00 | 0.00 | 74 | 1002.1 |
| 20260503031149 | 4 | 162 | 0.0 | 0.0 | 0.00 | 0.00 | 0.00 | 71 | 1002.0 |
| 20260503030645 | 5 | 162 | 0.0 | 0.0 | 0.00 | 0.00 | 0.00 | 69 | 1002.1 |
| 20260503030142 | 5 | 162 | 0.0 | 0.0 | 0.00 | 0.00 | 0.00 | 67 | 1002.0 |
| 20260503025638 | 5 | 162 | 0.0 | 0.0 | 0.00 | 0.00 | 0.00 | 66 | 1002.0 |
| 20260503025137 | 5 | 158 | 0.0 | 0.0 | 0.00 | 0.00 | 0.00 | 66 | 1002.1 |
| 20260503024632 | 6 | 162 | 0.0 | 0.0 | 0.00 | 0.00 | 0.00 | 65 | 1001.9 |
| 20260503024130 | 6 | 164 | 0.0 | 0.0 | 0.00 | 0.00 | 0.00 | 64 | 1001.9 |
| 20260503023627 | 6 | 168 | 0.0 | 0.0 | 0.00 | 0.00 | 0.00 | 63 | 1001.9 |
| 20260503023124 | 6 | 144 | 0.0 | 0.0 | 0.00 | 0.00 | 0.00 | 63 | 1001.9 |
| 20260503022620 | 6 | 133 | 1.6 | 1.6 | 0.00 | 0.00 | 0.00 | 61 | 1001.8 |
| 20260503022114 | 6 | 156 | 0.0 | 0.0 | 0.00 | 0.00 | 0.00 | 61 | 1001.6 |
| 20260503021612 | 6 | 167 | 0.0 | 0.0 | 0.00 | 0.00 | 0.00 | 60 | 1001.7 |
| 20260503021108 | 7 | 171 | 0.0 | 0.0 | 0.00 | 0.00 | 0.00 | 60 | 1001.7 |
| 20260503020605 | 7 | 161 | 0.0 | 0.0 | 0.00 | 0.00 | 0.00 | 59 | 1001.6 |
| 20260503015559 | 7 | 116 | 3.2 | 3.2 | 0.00 | 0.00 | 0.00 | 58 | 1001.5 |
| 20260503015056 | 7 | 123 | 3.2 | 3.2 | 0.00 | 0.00 | 0.00 | 57 | 1001.5 |
| 20260503014552 | 7 | 55 | 3.2 | 4.8 | 0.00 | 0.00 | 0.00 | 57 | 1001.2 |
| 20260503014050 | 7 | 133 | 1.6 | 1.6 | 0.00 | 0.00 | 0.00 | 56 | 1001.2 |
| 20260503013547 | 7 | 142 | 3.2 | 3.2 | 0.00 | 0.00 | 0.00 | 56 | 1001.1 |
| 20260503013045 | 7 | 17 | 4.8 | 4.8 | 0.00 | 0.00 | 0.00 | 55 | 1001.3 |
| 20260503012542 | 8 | 88 | 1.6 | 1.6 | 0.00 | 0.00 | 0.00 | 55 | 1001.1 |
| 20260503012038 | 8 | 94 | 1.6 | 1.6 | 0.00 | 0.00 | 0.00 | 55 | 1000.9 |
| 20260503011535 | 8 | 115 | 4.8 | 4.8 | 0.00 | 0.00 | 0.00 | 55 | 1001.0 |
| 20260503011032 | 8 | 133 | 1.6 | 3.2 | 0.00 | 0.00 | 0.00 | 54 | 1000.8 |
| 20260503010528 | 8 | 69 | 4.8 | 4.8 | 0.00 | 0.00 | 0.00 | 54 | 1000.8 |
| 20260503010026 | 8 | 62 | 1.6 | 1.6 | 0.00 | 0.00 | 0.00 | 54 | 1000.7 |
| 20260503005523 | 8 | 39 | 3.2 | 4.8 | 0.00 | 0.00 | 0.00 | 53 | 1000.7 |
| 20260503005020 | 8 | 128 | 1.6 | 1.6 | 0.00 | 0.00 | 0.00 | 53 | 1000.7 |
| 20260503004516 | 8 | 72 | 3.2 | 3.2 | 0.00 | 0.00 | 0.00 | 52 | 1000.7 |
| 20260503004015 | 8 | 145 | 1.6 | 1.6 | 0.00 | 0.00 | 0.00 | 51 | 1000.6 |
| 20260503003511 | 8 | 14 | 3.2 | 3.2 | 0.00 | 0.00 | 0.00 | 51 | 1000.6 |
| 20260503003009 | 9 | 32 | 1.6 | 3.2 | 0.00 | 0.00 | 0.00 | 51 | 1000.5 |
| 20260503002506 | 9 | 34 | 4.8 | 8.0 | 0.00 | 0.00 | 0.00 | 50 | 1000.6 |
| 20260503002001 | 9 | 186 | 3.2 | 4.8 | 0.00 | 0.00 | 0.00 | 50 | 1000.5 |
| 20260503001458 | 9 | 118 | 1.6 | 1.6 | 0.00 | 0.00 | 0.00 | 50 | 1000.2 |
| 20260503000956 | 10 | 36 | 4.8 | 4.8 | 0.00 | 0.00 | 0.00 | 48 | 1000.4 |
| 20260503000453 | 10 | 71 | 4.8 | 4.8 | 0.00 | 0.00 | 0.00 | 48 | 1000.4 |
| 20260502235950 | 10 | 60 | 3.2 | 3.2 | 0.00 | 0.00 | 0.00 | 50 | 1000.2 |
| 20260502235447 | 10 | 169 | 1.6 | 1.6 | 0.00 | 0.00 | 0.00 | 49 | 1000.2 |
| 20260502234944 | 10 | 24 | 4.8 | 4.8 | 0.00 | 0.00 | 0.00 | 48 | 1000.1 |
| 20260502234440 | 10 | 83 | 8.0 | 11.3 | 0.00 | 0.00 | 0.00 | 46 | 1000.0 |
| 20260502233938 | 11 | 52 | 4.8 | 8.0 | 0.00 | 0.00 | 0.00 | 45 | 1000.1 |
| 20260502233433 | 11 | 58 | 8.0 | 11.3 | 0.00 | 0.00 | 0.00 | 45 | 1000.0 |
| 20260502232930 | 11 | 76 | 4.8 | 4.8 | 0.00 | 0.00 | 0.00 | 45 | 999.9 |
| 20260502232426 | 11 | 74 | 4.8 | 8.0 | 0.00 | 0.00 | 0.00 | 44 | 1000.1 |
| 20260502231924 | 11 | 165 | 1.6 | 3.2 | 0.00 | 0.00 | 0.00 | 45 | 999.9 |
| 20260502231421 | 11 | 61 | 3.2 | 3.2 | 0.00 | 0.00 | 0.00 | 44 | 999.9 |
| 20260502230919 | 11 | 51 | 6.4 | 9.7 | 0.00 | 0.00 | 0.00 | 42 | 999.8 |
| 20260502230417 | 12 | 12 | 4.8 | 8.0 | 0.00 | 0.00 | 0.00 | 41 | 999.9 |
| 20260502225915 | 12 | 104 | 3.2 | 4.8 | 0.00 | 0.00 | 0.00 | 41 | 999.9 |
| 20260502225410 | 11 | 167 | 4.8 | 8.0 | 0.00 | 0.00 | 0.00 | 43 | 1000.0 |
| 20260502224908 | 12 | 77 | 4.8 | 8.0 | 0.00 | 0.00 | 0.00 | 41 | 999.9 |
| 20260502224403 | 12 | 30 | 3.2 | 4.8 | 0.00 | 0.00 | 0.00 | 42 | 1000.0 |
| 20260502223900 | 12 | 226 | 8.0 | 9.7 | 0.00 | 0.00 | 0.00 | 41 | 999.8 |
| 20260502223358 | 12 | 2 | 8.0 | 9.7 | 0.00 | 0.00 | 0.00 | 40 | 999.8 |
| 20260502222856 | 11 | 182 | 0.0 | 1.6 | 0.00 | 0.00 | 0.00 | 43 | 999.9 |
| 20260502222354 | 11 | 63 | 6.4 | 8.0 | 0.00 | 0.00 | 0.00 | 41 | 999.9 |
| 20260502221849 | 12 | 276 | 4.8 | 4.8 | 0.00 | 0.00 | 0.00 | 39 | 999.8 |
| 20260502221346 | 12 | 57 | 4.8 | 4.8 | 0.00 | 0.00 | 0.00 | 41 | 999.8 |
| 20260502220843 | 12 | 73 | 8.0 | 11.3 | 0.00 | 0.00 | 0.00 | 39 | 999.8 |
| 20260502220339 | 12 | 34 | 6.4 | 9.7 | 0.00 | 0.00 | 0.00 | 39 | 999.7 |
| 20260502215835 | 12 | 22 | 11.3 | 14.5 | 0.00 | 0.00 | 0.00 | 41 | 999.8 |
| 20260502215333 | 12 | 45 | 4.8 | 4.8 | 0.00 | 0.00 | 0.00 | 41 | 999.7 |
| 20260502214829 | 13 | 38 | 4.8 | 8.0 | 0.00 | 0.00 | 0.00 | 40 | 999.7 |
| 20260502214326 | 13 | 198 | 1.6 | 1.6 | 0.00 | 0.00 | 0.00 | 39 | 999.6 |
| 20260502213824 | 11 | 217 | 4.8 | 4.8 | 0.00 | 0.00 | 0.00 | 42 | 999.6 |
| 20260502213321 | 11 | 27 | 6.4 | 8.0 | 0.00 | 0.00 | 0.00 | 41 | 999.8 |
| 20260502212820 | 12 | 79 | 1.6 | 1.6 | 0.00 | 0.00 | 0.00 | 42 | 999.7 |
| 20260502212318 | 12 | 138 | 8.0 | 9.7 | 0.00 | 0.00 | 0.00 | 41 | 999.6 |
| 20260502211815 | 12 | 12 | 6.4 | 9.7 | 0.00 | 0.00 | 0.00 | 40 | 999.6 |
| 20260502211310 | 12 | 281 | 6.4 | 8.0 | 0.00 | 0.00 | 0.00 | 41 | 999.5 |
| 20260502210807 | 12 | 60 | 6.4 | 9.7 | 0.00 | 0.00 | 0.00 | 41 | 999.4 |
| 20260502210259 | 13 | 266 | 4.8 | 8.0 | 0.00 | 0.00 | 0.00 | 43 | 999.4 |
| 20260502205756 | 12 | 351 | 6.4 | 9.7 | 0.00 | 0.00 | 0.00 | 40 | 999.6 |
| 20260502205252 | 12 | 37 | 6.4 | 9.7 | 0.00 | 0.00 | 0.00 | 46 | 999.5 |
| 20260502204749 | 12 | 165 | 1.6 | 1.6 | 0.00 | 0.00 | 0.00 | 41 | 999.4 |
| 20260502204246 | 12 | 297 | 6.4 | 11.3 | 0.00 | 0.00 | 0.00 | 41 | 999.5 |
| 20260502203744 | 13 | 231 | 8.0 | 11.3 | 0.00 | 0.00 | 0.00 | 43 | 999.6 |
| 20260502203242 | 12 | 18 | 3.2 | 3.2 | 0.00 | 0.00 | 0.00 | 42 | 999.5 |
| 20260502202736 | 13 | 173 | 4.8 | 9.7 | 0.00 | 0.00 | 0.00 | 42 | 999.6 |
| 20260502202234 | 12 | 266 | 6.4 | 9.7 | 0.00 | 0.00 | 0.00 | 44 | 999.7 |
| 20260502201731 | 12 | 144 | 4.8 | 4.8 | 0.00 | 0.00 | 0.00 | 43 | 999.8 |
| 20260502201227 | 12 | 79 | 3.2 | 3.2 | 0.00 | 0.00 | 0.00 | 43 | 999.8 |
| 20260502200724 | 12 | 51 | 4.8 | 4.8 | 0.00 | 0.00 | 0.00 | 44 | 999.9 |